TimeMST,TemperatureF,Dew PointF,Humidity,Sea Level PressureIn,VisibilityMPH,Wind Direction,Wind SpeedMPH,Gust SpeedMPH,PrecipitationIn,Events,Conditions,WindDirDegrees,DateUTC
12:53 AM,10.9,-11.9,35,30.41,10.0,NE,10.4,-,N/A,,Clear,40,2014-01-21 07:53:00
1:53 AM,8.1,-11.0,42,30.44,10.0,NE,11.5,-,N/A,,Clear,40,2014-01-21 08:53:00
2:53 AM,10.9,-13.0,33,30.43,10.0,NE,9.2,-,N/A,,Clear,40,2014-01-21 09:53:00
3:53 AM,8.1,-13.0,38,30.45,10.0,NNE,11.5,-,N/A,,Clear,20,2014-01-21 10:53:00
4:53 AM,8.1,-11.0,42,30.46,10.0,NNE,16.1,-,N/A,,Clear,30,2014-01-21 11:53:00
5:53 AM,8.1,-11.0,42,30.47,10.0,NE,11.5,-,N/A,,Clear,50,2014-01-21 12:53:00
6:53 AM,6.1,-16.1,36,30.52,10.0,NE,3.5,-,N/A,,Clear,50,2014-01-21 13:53:00
7:53 AM,10.9,-16.1,29,30.52,10.0,ENE,9.2,-,N/A,,Clear,60,2014-01-21 14:53:00
8:53 AM,21.0,-15.0,20,30.44,10.0,NNE,10.4,-,N/A,,Clear,30,2014-01-21 15:53:00
9:53 AM,28.9,-15.0,14,30.38,10.0,NW,18.4,28.8,N/A,,Clear,310,2014-01-21 16:53:00
10:53 AM,32.0,-15.0,13,30.37,10.0,NW,16.1,24.2,N/A,,Clear,320,2014-01-21 17:53:00
11:53 AM,32.0,-6.0,19,30.34,10.0,WNW,23.0,-,N/A,,Clear,300,2014-01-21 18:53:00
12:53 PM,33.1,-8.0,17,30.31,10.0,NW,21.9,31.1,N/A,,Clear,310,2014-01-21 19:53:00
1:53 PM,35.1,-13.0,12,30.30,10.0,NW,10.4,24.2,N/A,,Clear,320,2014-01-21 20:53:00
2:53 PM,35.1,-13.0,12,30.28,10.0,NW,16.1,21.9,N/A,,Clear,310,2014-01-21 21:53:00
3:53 PM,34.0,-15.0,12,30.30,10.0,NW,12.7,23.0,N/A,,Clear,320,2014-01-21 22:53:00
4:53 PM,33.1,-22.0,9,30.30,10.0,NNW,8.1,-,N/A,,Clear,330,2014-01-21 23:53:00
5:53 PM,30.0,-24.0,9,30.31,10.0,North,12.7,23.0,N/A,,Clear,360,2014-01-22 00:53:00
6:53 PM,25.0,-17.0,15,30.35,10.0,Variable,5.8,-,N/A,,Clear,0,2014-01-22 01:53:00
7:53 PM,21.0,-18.9,16,30.34,10.0,Variable,4.6,-,N/A,,Clear,0,2014-01-22 02:53:00
8:53 PM,16.0,-16.1,23,30.29,10.0,ENE,6.9,-,N/A,,Clear,60,2014-01-22 03:53:00
9:53 PM,16.0,-20.9,18,30.21,10.0,NE,10.4,-,N/A,,Clear,40,2014-01-22 04:53:00
10:53 PM,18.0,-20.9,17,30.18,10.0,NNW,6.9,-,N/A,,Clear,340,2014-01-22 05:53:00
11:53 PM,14.0,-18.9,22,30.19,10.0,East,6.9,-,N/A,,Clear,100,2014-01-22 06:53:00